Overview Statistics Trail Chart Weather Telemetry Raw packets
 

This is the latest recevied weather packets stored in our database for station/object DB0OHL. If no packets are shown the sender has not sent any weather packets the latest 10 day(s).

<< 18 19 20 21 22 23 24 >>
Time Temp. Humidity Pressure Rain* Wind** Luminosity Snow
1777530936 10° C 53% 1030.2 hPa 0 mm - - -
1777530334 9.44° C 53% 1030.2 hPa 0 mm - - -
1777529731 9.44° C 55% 1030.1 hPa 0 mm - - -
1777529129 9.44° C 55% 1030 hPa 0 mm - - -
1777528526 8.89° C 57% 1030.2 hPa 0 mm - - -
1777527924 8.33° C 59% 1030 hPa 0 mm - - -
1777527321 8.33° C 59% 1030 hPa 0 mm - - -
1777526719 8.33° C 60% 1030 hPa 0 mm - - -
1777526116 7.78° C 60% 1029.7 hPa 0 mm - - -
1777525574 7.78° C 61% 1029.8 hPa 0 mm - - -
1777524971 7.22° C 62% 1029.7 hPa 0 mm - - -
1777524369 7.22° C 63% 1029.7 hPa 0 mm - - -
1777523766 6.67° C 63% 1029.6 hPa 0 mm - - -
1777523164 6.67° C 63% 1029.4 hPa 0 mm - - -
1777522561 6.67° C 63% 1029.4 hPa 0 mm - - -
1777521959 7.22° C 63% 1029.4 hPa 0 mm - - -
1777521356 7.22° C 63% 1029.3 hPa 0 mm - - -
1777520753 6.67° C 63% 1029.2 hPa 0 mm - - -
1777520151 7.22° C 64% 1029.2 hPa 0 mm - - -
1777519548 7.22° C 63% 1029.1 hPa 0 mm - - -
1777518946 7.22° C 63% 1029 hPa 0 mm - - -
1777518343 7.22° C 61% 1028.9 hPa 0 mm - - -
1777517741 7.22° C 62% 1029 hPa 0 mm - - -
1777517138 7.22° C 61% 1028.7 hPa 0 mm - - -
1777516536 7.78° C 62% 1028.8 hPa 0 mm - - -

* Rain latest hour (hover to see other rain measurements)
** Current wind speed in m/s (hover to see current wind gust speed)